Home   Weather   Raleigh   Past weeks
Flag for USA

Past Weather in Raleigh, North Carolina, USA — Yesterday and Last 2 Weeks

Now
41 °F

Passing clouds.


Feels Like: 39 °F
Forecast: 68 / 34 °F
Wind: 3 mph from Northeast

Location: Raleigh-Durham International Airport

Current Time: Mar 23, 2019 at 11:59:21 pm

Latest Report: Mar 23, 2019 at 10:51 pm


Visibility: 10 mi

Pressure: 30.28 "Hg

Humidity: 53%

Dew Point: 25 °F

Location of RaleighLocation

Past Weather in Raleigh — Graph

°F

Raleigh Temperature Yesterday

Maximum temperature yesterday: 63 °F (at 4:51 pm)
Minimum temperature yesterday: 42 °F (at 4:51 am)
Average temperature yesterday: 51 °F

High & Low Weather Summary for the Past Weeks

 TemperatureHumidityPressure
High73 °F (Mar 14, 1:51 pm)100% (Mar 9, 12:51 am)30.47 "Hg (Mar 9, 12:51 am)
Low33 °F (Mar 13, 6:51 am)15% (Mar 23, 5:51 pm)29.72 "Hg (Mar 22, 4:51 pm)
Average51 °F62%30.13 "Hg
* Reported Mar 8 8:51 pm — Mar 23 9:51 pm, Raleigh. Weather by CustomWeather, © 2019

Note: Actual official high and low records may vary slightly from our data, if they occured in-between our weather recording intervals... More about our weather records

Advertising

Raleigh Weather History for the Previous 24 Hours

Scroll right to see more
 ConditionsComfort  
Time TempWeatherWind HumidityBarometerVisibility
9:51 pm
Sat, Mar 23
45 °FPassing clouds.No wind48%30.27 "Hg10 mi
8:51 pm49 °FPassing clouds.No wind39%30.26 "Hg10 mi
7:51 pm54 °FPassing clouds.No wind25%30.24 "Hg10 mi
6:51 pm61 °FSunny.5 mph16%30.21 "Hg10 mi
5:51 pm62 °FPassing clouds.7 mph15%30.19 "Hg10 mi
4:51 pm62 °FSunny.9 mph18%30.19 "Hg10 mi
3:51 pm61 °FSunny.6 mph19%30.19 "Hg10 mi
2:51 pm59 °FSunny.15 mph19%30.20 "Hg10 mi
1:51 pm57 °FSunny.10 mph21%30.22 "Hg10 mi
12:51 pm56 °FSunny.9 mph24%30.23 "Hg10 mi
11:51 am53 °FSunny.7 mph25%30.24 "Hg10 mi
10:51 am51 °FPassing clouds.13 mph31%30.22 "Hg10 mi
9:51 am48 °FSunny.13 mph37%30.21 "Hg10 mi
8:51 am44 °FSunny.7 mph49%30.19 "Hg10 mi
7:51 am38 °FSunny.6 mph65%30.16 "Hg10 mi
6:51 am36 °FClear.5 mph67%30.13 "Hg10 mi
5:51 am40 °FClear.3 mph51%30.09 "Hg10 mi
4:51 am42 °FClear.5 mph45%30.06 "Hg10 mi
3:51 am45 °FClear.6 mph38%30.04 "Hg10 mi
2:51 am46 °FClear.10 mph37%30.04 "Hg10 mi
1:51 am46 °FClear.8 mph40%30.02 "Hg10 mi
12:51 am47 °FClear.6 mph41%30.01 "Hg10 mi
11:51 pm
Fri, Mar 22
49 °FClear.7 mph36%30.01 "Hg10 mi
Weather by CustomWeather, © 2019

See weather overview